Regional Weather Roundup
Issued by NWS

Home | Current Version | Previous Version | Text Only | Print | Product List | Glossary Off
Versions: 1 2 3 4 5 6 7 8 9 10 11 12 13 14 15 16 17 18 19 20 21 22 23 24 25 26 27 28 29 30 31 32 33 34 35 36 37 38 39 40 41 42 43 44 45 46 47 48 49 50

113
ASUS45 KABQ 170410
RWRNM
NEW MEXICO REGIONAL WEATHER ROUNDUP
NATIONAL WEATHER SERVICE ALBUQUERQUE NM
1000 PM MDT MON OCT 16 2017

NOTE: "FAIR" MEANS FEW OR NO CLOUDS BELOW 12,000 FEET AGL WITH NO
       SIGNIFICANT WEATHER OR OBSTRUCTIONS TO VISION.

      THIS PRODUCT IS RELEASED AS TWO VERSIONS.  ONE VERSION NEAR
      THE TOP OF THE HOUR CONTAINING PRELIMINARY DATA FROM ALBUQUERQUE
      AND OTHER STATIONS.  A FINAL VERSION WITH ADDITIONAL DATA IS
      ISSUED ABOUT 10 MINUTES AFTER THE HOUR.

NMZ501-503-504-510>518-170500-
NORTHWEST PLATEAU/NORTHCENTRAL MOUNTAINS

CITY           SKY/WX    TMP DP  RH WIND       PRES   REMARKS
FARMINGTON     NOT AVBL
LOS ALAMOS     FAIR      60  11  14 CALM      30.44R
SANTA FE       NOT AVBL
TAOS           FAIR      43  18  36 E6        30.46R
ANGEL FIRE     FAIR      29  19  68 S5        30.49F WCI  24

$$
NMZ402-403-502-505>509-170500-
WESTCENTRAL MOUNTAINS/SOUTHWEST MOUNTAINS

CITY           SKY/WX    TMP DP  RH WIND       PRES   REMARKS
GALLUP         NOT AVBL
GRANTS         FAIR      44  22  42 SE5       30.43R

$$
NMZ407-409-411-412-170500-
SOUTHERN DESERTS

CITY           SKY/WX    TMP DP  RH WIND       PRES   REMARKS
DEMING         NOT AVBL
LAS CRUCES     FAIR      57  37  47 SE3       30.33S
HOLLOMAN AFB   FAIR      57  33  39 NE7       30.34R
T OR C         NOT AVBL

$$
NMZ519>523-170500-
CENTRAL VALLEYS/CENTRAL HIGHLANDS

CITY           SKY/WX    TMP DP  RH WIND       PRES   REMARKS
ALBUQUERQUE    NOT AVBL
DOUBLE EAGLE   CLEAR     48  25  40 SW8       30.38S
MORIARTY ARPT  FAIR      38  29  69 CALM      30.41R
CLINES CORNERS NOT AVBL
BELEN          FAIR      54  26  34 CALM      30.35S
SOCORRO        FAIR      59  28  30 S9        30.34R

$$
NMZ524>526-539-540-170500-
SOUTHCENTRAL MOUNTAINS

CITY           SKY/WX    TMP DP  RH WIND       PRES   REMARKS
RUIDOSO        NOT AVBL

$$
NMZ527>531-170500-
NORTHEAST HIGHLANDS/NORTHEAST PLAINS

CITY           SKY/WX    TMP DP  RH WIND       PRES   REMARKS
RATON          NOT AVBL
CLAYTON        FAIR      50  36  58 SW8       30.25F

$$
NMZ532>537-170500-
EASTCENTRAL PLAINS

CITY           SKY/WX    TMP DP  RH WIND       PRES   REMARKS
CANNON AFB     FAIR      50  39  66 SW10      30.32R
CLOVIS AIRPORT FAIR      45  38  76 MISG      30.31S

$$
NMZ028-029-538-170500-
SOUTHEAST PLAINS

CITY           SKY/WX    TMP DP  RH WIND       PRES   REMARKS
ROSWELL        NOT AVBL
CARLSBAD       NOT AVBL


$$




USA.gov is the U.S. government's official web portal to all federal, state and local government web resources and services.